Weather History for Ballenas Island, BC

Change the Weather History Date:

Saturday, March 23, 2013

  Actual Average Record
Temperature  
Mean Temperature 41 °F -  
Max Temperature 44 °F - - ()
Min Temperature 38 °F - - ()
Degree Days  
Heating Degree Days 24    
Moisture  
Dew Point 34 °F    
Average Humidity 74    
Maximum Humidity 85    
Minimum Humidity 54    
Precipitation  
Precipitation 0.00 in - - ()
Sea Level Pressure  
Sea Level Pressure 30.32 in    
Wind  
Wind Speed 10 mph ()    
Max Wind Speed 21 mph    
Max Gust Speed -    
T = Trace of Precipitation, MM = Missing Value Source: Averaged Metar Reports

Daily Weather History Graph

Daily Weather History Graph

Search for Another Location

Airport:

Trip Planner

Search our weather history database for the weather conditions in past years. The results will help you decide how hot, cold, wet, or windy it might be!

Date:

Astronomy

Mar. 23, 2013 Rise Set
Actual Time 7:12 AM PDT 7:34 PM PDT
Civil Twilight 6:40 AM PDT 8:06 PM PDT
Nautical Twilight 6:02 AM PDT 8:44 PM PDT
Astronomical Twilight 5:23 AM PDT 9:24 PM PDT
Moon 3:51 PM PDT (3/23) 5:09 AM PDT (3/23)
Length of Visible Light 13h 26m
Length of Day
12h 22m
Waxing Gibbous, 86% of the Moon is Illuminated
Mar 23
Waxing Gibbous
Mar 27
Full
Apr 2
Last Quarter
Apr 10
New
Apr 18
First Quarter

Hourly Weather History & Observations

Time (PDT) Temp. Windchill Dew Point Humidity Pressure Visibility Wind Dir Wind Speed Gust Speed Precip Events Conditions
12:00 AM 38.8 °F 35.4 °F 30.7 °F 73% 30.32 in - SSW 4.6 mph - N/A   Unknown
1:00 AM 40.8 °F 36.2 °F 34.7 °F 79% 30.33 in - ESE 6.9 mph - N/A   Unknown
2:00 AM 38.7 °F 35.2 °F 31.6 °F 76% 30.34 in - SSW 4.6 mph - N/A   Unknown
3:00 AM 39.7 °F 37.6 °F 31.3 °F 72% 30.35 in - ESE 3.5 mph - N/A   Unknown
4:00 AM 40.6 °F 32.7 °F 34.3 °F 78% 30.34 in - ESE 15.0 mph - N/A   Unknown
5:00 AM 40 °F - 34 °F 73% 30.34 in - SE 11.5 mph - -  
5:00 AM 39.7 °F 32.7 °F 34.3 °F 81% 30.34 in - SE 11.5 mph - N/A   Unknown
6:00 AM 39.7 °F 34.3 °F 35.1 °F 83% 30.35 in - SE 8.1 mph - N/A   Unknown
7:00 AM 40.1 °F 31.6 °F 35.8 °F 85% 30.34 in - ESE 16.1 mph - N/A   Unknown
8:00 AM 40.5 °F 31.8 °F 36.0 °F 84% 30.35 in - ESE 17.3 mph - N/A   Unknown
9:00 AM 40.6 °F 31.2 °F 36.1 °F 84% 30.34 in - ESE 20.7 mph - N/A   Unknown
10:00 AM 41.0 °F 32.2 °F 36.1 °F 83% 30.35 in - ESE 18.4 mph - N/A   Unknown
11:00 AM 42 °F - 36 °F 73% 30.35 in - ESE 17.3 mph - -  
11:00 AM 42.1 °F 33.9 °F 36.3 °F 80% 30.35 in - ESE 17.3 mph - N/A   Unknown
12:00 PM 43.0 °F 34.5 °F 37.0 °F 80% 30.34 in - ESE 19.6 mph - N/A   Unknown
1:00 PM 43.0 °F 34.2 °F 35.8 °F 76% 30.33 in - ESE 20.7 mph - N/A   Unknown
2:00 PM 43.5 °F 35.0 °F 36.5 °F 76% 30.32 in - ESE 20.7 mph - N/A   Unknown
3:00 PM 43.7 °F 35.4 °F 35.2 °F 72% 30.31 in - ESE 19.6 mph - N/A   Unknown
4:00 PM 43.9 °F 35.9 °F 34.3 °F 69% 30.31 in - ESE 18.4 mph - N/A   Unknown
5:00 PM 44 °F - 33 °F 54% 30.30 in - ESE 16.1 mph - -  
5:00 PM 44.2 °F 37.0 °F 31.3 °F 60% 30.30 in - ESE 16.1 mph - N/A   Unknown
6:00 PM 44.4 °F 37.5 °F 34.2 °F 67% 30.29 in - ESE 15.0 mph - N/A   Unknown
7:00 PM 44.6 °F 39.7 °F 33.1 °F 64% 30.28 in - ESE 9.2 mph - N/A   Unknown
8:00 PM 44.4 °F 38.6 °F 34.7 °F 69% 30.28 in - ESE 11.5 mph - N/A   Unknown
9:00 PM 44.1 °F 38.6 °F 32.9 °F 65% 30.28 in - ESE 10.4 mph - N/A   Unknown
11:00 PM 43 °F - 34 °F 61% 30.28 in - ESE 5.8 mph - -  
11:00 PM 43.2 °F 39.7 °F 34.2 °F 71% 30.28 in - ESE 5.8 mph - N/A   Unknown